When you browse on this site, cookies collect data to enhance your experience and personalize the content and advertising you see.
Visit our Privacy Policy to learn more. By continuing to use the site, you agree to this use of cookies and data.
  • en Suisse
  • Liste des pays
  • À 7 jours
  • Température de l'eau
  • Carte météo
  • Widgets météo
  • user-avatar
    Se connecter

    Météo par heure à Xuanzhou

    Ce jour, 7 Juin, Dimanche

    Heure Température Précipitation Vent Pression Humidité
    00:00 +22°C° 0 mm 3 m/s 754 mmHg 88%
    01:00 +21°C° 0 mm 3 m/s 754 mmHg 89%
    02:00 +21°C° 0 mm 3 m/s 754 mmHg 90%
    03:00 +20°C° 0 mm 3 m/s 754 mmHg 91%
    04:00 +20°C° 0 mm 3 m/s 754 mmHg 92%
    05:00 +20°C° 0 mm 3 m/s 754 mmHg 93%
    06:00 +21°C° 0 mm 3 m/s 754 mmHg 88%
    07:00 +24°C° 0 mm 3 m/s 755 mmHg 84%
    08:00 +25°C° 0 mm 4 m/s 755 mmHg 80%
    09:00 +27°C° 0 mm 4 m/s 755 mmHg 73%
    10:00 +29°C° 0 mm 5 m/s 755 mmHg 66%
    11:00 +32°C° 0 mm 5 m/s 755 mmHg 59%
    12:00 +32°C° 0 mm 6 m/s 754 mmHg 57%
    13:00 +33°C° 0 mm 6 m/s 754 mmHg 54%
    14:00 +33°C° 0 mm 6 m/s 753 mmHg 52%
    15:00 +33°C° 0 mm 6 m/s 753 mmHg 55%
    16:00 +32°C° 0 mm 6 m/s 753 mmHg 58%
    17:00 +30°C° 0 mm 6 m/s 753 mmHg 62%
    18:00 +28°C° 0 mm 6 m/s 753 mmHg 66%
    19:00 +27°C° 0 mm 6 m/s 753 mmHg 70%
    20:00 +24°C° 0 mm 6 m/s 753 mmHg 74%
    21:00 +24°C° 0 mm 6 m/s 753 mmHg 76%
    22:00 +23°C° 0 mm 6 m/s 754 mmHg 78%
    23:00 +22°C° 0 mm 5 m/s 754 mmHg 81%

    Demain, 8 Juin, Lundi

    Heure Température Précipitation Vent Pression Humidité
    00:00 +22°C° 0 mm 5 m/s 754 mmHg 84%
    01:00 +22°C° 0 mm 5 m/s 753 mmHg 87%
    02:00 +21°C° 0 mm 4 m/s 753 mmHg 90%
    03:00 +21°C° 0 mm 5 m/s 753 mmHg 91%
    04:00 +21°C° 0 mm 5 m/s 753 mmHg 91%
    05:00 +21°C° 0 mm 5 m/s 753 mmHg 91%
    06:00 +22°C° 0 mm 5 m/s 754 mmHg 88%
    07:00 +25°C° 0 mm 5 m/s 754 mmHg 84%
    08:00 +26°C° 0 mm 5 m/s 754 mmHg 81%
    09:00 +28°C° 0 mm 5 m/s 754 mmHg 76%
    10:00 +29°C° 0 mm 6 m/s 754 mmHg 72%
    11:00 +32°C° 0 mm 6 m/s 754 mmHg 67%
    12:00 +32°C° 0 mm 6 m/s 754 mmHg 66%
    13:00 +33°C° 0 mm 6 m/s 753 mmHg 64%
    14:00 +34°C° 0 mm 6 m/s 753 mmHg 62%
    15:00 +33°C° 0 mm 6 m/s 752 mmHg 65%
    16:00 +33°C° 0 mm 6 m/s 752 mmHg 67%
    17:00 +32°C° 0 mm 6 m/s 752 mmHg 69%
    18:00 +30°C° 0 mm 6 m/s 752 mmHg 74%
    19:00 +28°C° 0 mm 6 m/s 753 mmHg 79%
    20:00 +27°C° 0 mm 5 m/s 753 mmHg 84%
    21:00 +26°C° 0 mm 5 m/s 753 mmHg 86%
    22:00 +26°C° 0 mm 5 m/s 754 mmHg 88%
    23:00 +25°C° 0 mm 4 m/s 754 mmHg 90%

    Après-demain, 9 Juin, Mardi

    Heure Température Précipitation Vent Pression Humidité
    00:00 +25°C° 0 mm 4 m/s 754 mmHg 91%
    01:00 +25°C° 0 mm 4 m/s 753 mmHg 92%
    02:00 +24°C° 0 mm 3 m/s 753 mmHg 93%
    03:00 +24°C° 0 mm 3 m/s 753 mmHg 94%
    04:00 +24°C° 0 mm 2 m/s 753 mmHg 94%
    05:00 +24°C° 0 mm 2 m/s 753 mmHg 95%
    06:00 +25°C° 0 mm 2 m/s 753 mmHg 90%
    07:00 +27°C° 0 mm 2 m/s 754 mmHg 84%
    08:00 +28°C° 0 mm 1 m/s 754 mmHg 79%
    09:00 +30°C° 0 mm 1 m/s 754 mmHg 74%
    10:00 +31°C° 0 mm 1 m/s 754 mmHg 69%
    11:00 +33°C° 0 mm 1 m/s 753 mmHg 64%
    12:00 +33°C° 0.2 mm 1 m/s 753 mmHg 63%
    13:00 +35°C° 0.2 mm 2 m/s 752 mmHg 61%
    14:00 +35°C° 0.2 mm 2 m/s 751 mmHg 59%
    15:00 +35°C° 0.6 mm 2 m/s 751 mmHg 63%
    16:00 +34°C° 0.6 mm 2 m/s 751 mmHg 66%
    17:00 +34°C° 0.6 mm 2 m/s 751 mmHg 69%
    18:00 +31°C° 1.2 mm 2 m/s 751 mmHg 75%
    19:00 +30°C° 1.2 mm 2 m/s 752 mmHg 81%
    20:00 +29°C° 1.2 mm 2 m/s 752 mmHg 87%
    21:00 +28°C° 0.6 mm 2 m/s 752 mmHg 88%
    22:00 +28°C° 0.6 mm 1 m/s 753 mmHg 90%
    23:00 +28°C° 0.6 mm 1 m/s 753 mmHg 91%

    10 Juin, Mercredi

    Heure Température Précipitation Vent Pression Humidité
    00:00 +27°C° 0.6 mm 1 m/s 753 mmHg 92%
    01:00 +27°C° 0.6 mm 1 m/s 752 mmHg 93%
    02:00 +27°C° 0.6 mm 1 m/s 752 mmHg 94%
    03:00 +27°C° 0.8 mm 1 m/s 752 mmHg 94%
    04:00 +26°C° 0.8 mm 1 m/s 752 mmHg 94%
    05:00 +26°C° 0.8 mm 1 m/s 752 mmHg 95%
    06:00 +27°C° 1.9 mm 1 m/s 752 mmHg 94%
    07:00 +27°C° 1.9 mm 1 m/s 752 mmHg 93%
    08:00 +27°C° 1.9 mm 1 m/s 753 mmHg 92%
    09:00 +27°C° 2.2 mm 1 m/s 753 mmHg 92%
    10:00 +27°C° 2.2 mm 1 m/s 753 mmHg 93%
    11:00 +27°C° 2.2 mm 1 m/s 753 mmHg 94%
    12:00 +27°C° 1 mm 1 m/s 753 mmHg 93%
    13:00 +27°C° 1 mm 1 m/s 752 mmHg 93%
    14:00 +27°C° 1 mm 1 m/s 752 mmHg 93%
    15:00 +27°C° 0.7 mm 1 m/s 752 mmHg 92%
    16:00 +28°C° 0.7 mm 1 m/s 751 mmHg 91%
    17:00 +28°C° 0.7 mm 1 m/s 751 mmHg 90%
    18:00 +27°C° 0.2 mm 1 m/s 752 mmHg 91%
    19:00 +27°C° 0.2 mm 1 m/s 752 mmHg 93%
    20:00 +26°C° 0.2 mm 1 m/s 752 mmHg 95%
    21:00 +26°C° 0 mm 1 m/s 752 mmHg 94%
    22:00 +26°C° 0 mm 1 m/s 752 mmHg 94%
    23:00 +26°C° 0 mm 1 m/s 753 mmHg 94%

    11 Juin, Jeudi

    Heure Température Précipitation Vent Pression Humidité
    00:00 +26°C° 0 mm 1 m/s 752 mmHg 94%
    01:00 +26°C° 0 mm 1 m/s 752 mmHg 94%
    02:00 +24°C° 0 mm 0 m/s 752 mmHg 94%
    03:00 +24°C° 0 mm 0 m/s 752 mmHg 93%
    04:00 +26°C° 0 mm 1 m/s 752 mmHg 93%
    05:00 +26°C° 0 mm 1 m/s 752 mmHg 93%
    06:00 +26°C° 0.1 mm 1 m/s 752 mmHg 92%
    07:00 +27°C° 0.1 mm 1 m/s 752 mmHg 91%
    08:00 +27°C° 0.1 mm 1 m/s 752 mmHg 91%
    09:00 +28°C° 0.1 mm 1 m/s 752 mmHg 88%
    10:00 +29°C° 0.1 mm 2 m/s 752 mmHg 85%
    11:00 +29°C° 0.1 mm 2 m/s 751 mmHg 83%
    12:00 +30°C° 0.3 mm 1 m/s 751 mmHg 78%
    13:00 +31°C° 0.3 mm 1 m/s 750 mmHg 73%
    14:00 +33°C° 0.3 mm 1 m/s 749 mmHg 69%
    15:00 +33°C° 0.5 mm 1 m/s 749 mmHg 69%
    16:00 +33°C° 0.5 mm 1 m/s 748 mmHg 69%
    17:00 +33°C° 0.5 mm 1 m/s 748 mmHg 70%
    18:00 +31°C° 0.4 mm 1 m/s 748 mmHg 74%
    19:00 +30°C° 0.4 mm 1 m/s 749 mmHg 79%
    20:00 +29°C° 0.4 mm 1 m/s 749 mmHg 84%
    21:00 +29°C° 0 mm 1 m/s 749 mmHg 85%
    22:00 +28°C° 0 mm 1 m/s 749 mmHg 86%
    23:00 +28°C° 0 mm 2 m/s 750 mmHg 87%

    12 Juin, Vendredi

    Heure Température Précipitation Vent Pression Humidité
    00:00 +28°C° 0 mm 2 m/s 749 mmHg 88%
    01:00 +27°C° 0 mm 2 m/s 749 mmHg 88%
    02:00 +27°C° 0 mm 1 m/s 748 mmHg 89%
    03:00 +27°C° 0 mm 2 m/s 748 mmHg 89%
    04:00 +27°C° 0 mm 2 m/s 748 mmHg 90%
    05:00 +27°C° 0 mm 2 m/s 748 mmHg 90%
    06:00 +28°C° 0.1 mm 2 m/s 749 mmHg 87%
    07:00 +29°C° 0.1 mm 2 m/s 749 mmHg 84%
    08:00 +30°C° 0.1 mm 3 m/s 749 mmHg 81%
    09:00 +31°C° 0.7 mm 3 m/s 749 mmHg 77%
    10:00 +33°C° 0.7 mm 3 m/s 749 mmHg 74%
    11:00 +34°C° 0.7 mm 3 m/s 749 mmHg 70%
    12:00 +34°C° 1.7 mm 3 m/s 748 mmHg 74%
    13:00 +32°C° 1.7 mm 2 m/s 748 mmHg 78%
    14:00 +31°C° 1.7 mm 2 m/s 748 mmHg 82%
    15:00 +31°C° 0.9 mm 1 m/s 748 mmHg 84%
    16:00 +30°C° 0.9 mm 1 m/s 748 mmHg 87%
    17:00 +29°C° 0.9 mm 1 m/s 748 mmHg 89%
    18:00 +29°C° 0 mm 1 m/s 748 mmHg 90%
    19:00 +28°C° 0 mm 1 m/s 748 mmHg 91%
    20:00 +28°C° 0 mm 1 m/s 749 mmHg 92%
    21:00 +28°C° 0 mm 1 m/s 749 mmHg 91%
    22:00 +28°C° 0 mm 1 m/s 749 mmHg 91%
    23:00 +28°C° 0 mm 1 m/s 749 mmHg 91%
    Voir plus